SWA807 KFLL-KMCO

Flight info

Callsign SWA807
Flight time 0h 33m
Altitude 22000
Route FRSBE2 WAPOM MUNGI1
Aircraft B737/M-SDE2E3GIJ4RWZ/LB1D1

Departure

Time 2026-05-05 21:54
Airport Fort Lauderdale Hollywood International Airport (KFLL)

Arrival

Time 2026-05-05 22:27
Airport Orlando International Airport (KMCO)
Time Latitude Longitude Altitude Speed Heading
2026-05-05 21:06 26.07413 -80.13791 15 ft 0 kts 243°
2026-05-05 21:40 26.07416 -80.13784 16 ft 4 kts 243°
2026-05-05 21:40 26.07428 -80.13759 16 ft 2 kts 243°
2026-05-05 21:40 26.07434 -80.13742 15 ft 4 kts 313°
2026-05-05 21:40 26.07413 -80.13735 19 ft 4 kts
2026-05-05 21:41 26.07400 -80.13735 15 ft 0 kts
2026-05-05 21:43 26.07409 -80.13735 19 ft 4 kts
2026-05-05 21:43 26.07421 -80.13735 15 ft 0 kts 360°
2026-05-05 21:46 26.07432 -80.13735 15 ft 7 kts 360°
2026-05-05 21:46 26.07463 -80.13738 15 ft 1 kts 332°
2026-05-05 21:46 26.07474 -80.13839 15 ft 20 kts 273°
2026-05-05 21:47 26.07486 -80.13991 15 ft 20 kts 270°
2026-05-05 21:47 26.07487 -80.14140 15 ft 19 kts 270°
2026-05-05 21:47 26.07487 -80.14284 15 ft 18 kts 270°
2026-05-05 21:47 26.07487 -80.14423 15 ft 18 kts 270°
2026-05-05 21:48 26.07488 -80.14558 15 ft 18 kts 270°
2026-05-05 21:48 26.07489 -80.14704 15 ft 19 kts 270°
2026-05-05 21:48 26.07489 -80.14851 15 ft 19 kts 269°
2026-05-05 21:48 26.07489 -80.14993 15 ft 18 kts 271°
2026-05-05 21:49 26.07490 -80.15130 15 ft 17 kts 270°
2026-05-05 21:49 26.07490 -80.15261 15 ft 17 kts 270°
2026-05-05 21:49 26.07490 -80.15389 15 ft 16 kts 270°
2026-05-05 21:49 26.07490 -80.15512 15 ft 16 kts 270°
2026-05-05 21:50 26.07490 -80.15630 15 ft 15 kts 270°
2026-05-05 21:50 26.07490 -80.15743 15 ft 14 kts 270°
2026-05-05 21:50 26.07490 -80.15852 15 ft 14 kts 270°
2026-05-05 21:50 26.07492 -80.15957 15 ft 14 kts 272°
2026-05-05 21:51 26.07495 -80.16062 15 ft 13 kts 272°
2026-05-05 21:51 26.07498 -80.16163 15 ft 13 kts 272°
2026-05-05 21:51 26.07497 -80.16260 15 ft 13 kts 268°
2026-05-05 21:51 26.07496 -80.16375 15 ft 16 kts 269°
2026-05-05 21:52 26.07499 -80.16602 15 ft 12 kts 271°
2026-05-05 21:52 26.07545 -80.16641 16 ft 10 kts
2026-05-05 21:52 26.07610 -80.16645 16 ft 9 kts 359°
2026-05-05 21:53 26.07680 -80.16639 18 ft 10 kts 30°
2026-05-05 21:53 26.07695 -80.16573 17 ft 0 kts 90°
2026-05-05 21:53 26.07695 -80.16557 17 ft 18 kts 90°
2026-05-05 21:53 26.07693 -80.16074 18 ft 105 kts 91°
2026-05-05 21:54 26.07685 -80.15019 203 ft 153 kts 89°
2026-05-05 21:54 26.07666 -80.13814 1057 ft 161 kts 88°
2026-05-05 21:54 26.07687 -80.12493 1734 ft 182 kts 86°
2026-05-05 21:54 26.07724 -80.10941 2027 ft 219 kts 87°
2026-05-05 21:55 26.07966 -80.09188 2447 ft 246 kts 70°
2026-05-05 21:55 26.08874 -80.07511 3109 ft 260 kts 41°
2026-05-05 21:55 26.10427 -80.06474 4099 ft 263 kts 20°
2026-05-05 21:55 26.12180 -80.05783 5160 ft 271 kts 17°
2026-05-05 21:56 26.13980 -80.05096 6332 ft 275 kts 15°
2026-05-05 21:56 26.15870 -80.04848 7387 ft 275 kts 351°
2026-05-05 21:56 26.17697 -80.05372 8404 ft 278 kts 338°
2026-05-05 21:56 26.19538 -80.06099 9507 ft 283 kts 337°
2026-05-05 21:57 26.21357 -80.06970 10491 ft 289 kts 324°
2026-05-05 21:57 26.22827 -80.08606 10886 ft 314 kts 300°
2026-05-05 21:57 26.23739 -80.10884 11571 ft 327 kts 291°
2026-05-05 21:57 26.24563 -80.13266 12552 ft 332 kts 291°
2026-05-05 21:58 26.25400 -80.15670 13620 ft 334 kts 292°
2026-05-05 21:58 26.26463 -80.17986 14548 ft 338 kts 300°
2026-05-05 21:58 26.27723 -80.20213 15502 ft 340 kts 303°
2026-05-05 21:58 26.29038 -80.22430 16440 ft 344 kts 303°
2026-05-05 21:59 26.30363 -80.24666 17363 ft 348 kts 303°
2026-05-05 21:59 26.31697 -80.26943 18264 ft 353 kts 303°
2026-05-05 21:59 26.33034 -80.29257 19044 ft 357 kts 302°
2026-05-05 21:59 26.34358 -80.31568 19856 ft 359 kts 302°
2026-05-05 22:00 26.35702 -80.33928 20655 ft 362 kts 302°
2026-05-05 22:00 26.37052 -80.36308 21421 ft 365 kts 302°
2026-05-05 22:00 26.38408 -80.38703 21852 ft 365 kts 301°
2026-05-05 22:00 26.39774 -80.41116 22000 ft 369 kts 302°
2026-05-05 22:01 26.41155 -80.43560 22013 ft 372 kts 302°
2026-05-05 22:01 26.42537 -80.46005 22002 ft 372 kts 302°
2026-05-05 22:01 26.43917 -80.48447 22004 ft 371 kts 302°
2026-05-05 22:01 26.45290 -80.50878 22011 ft 370 kts 301°
2026-05-05 22:02 26.46666 -80.53311 22012 ft 370 kts 302°
2026-05-05 22:02 26.48368 -80.55469 22013 ft 372 kts 318°
2026-05-05 22:02 26.50538 -80.57062 22009 ft 377 kts 331°
2026-05-05 22:02 26.52988 -80.58058 22019 ft 381 kts 339°
2026-05-05 22:03 26.55573 -80.58885 22012 ft 382 kts 341°
2026-05-05 22:03 26.58146 -80.59656 22027 ft 383 kts 341°
2026-05-05 22:03 26.60684 -80.60415 22020 ft 383 kts 340°
2026-05-05 22:03 26.63254 -80.61198 22013 ft 382 kts 340°
2026-05-05 22:04 26.65822 -80.61994 22010 ft 382 kts 340°
2026-05-05 22:04 26.68382 -80.62799 22014 ft 382 kts 340°
2026-05-05 22:04 26.70939 -80.63608 22013 ft 381 kts 340°
2026-05-05 22:04 26.73498 -80.64422 22013 ft 381 kts 340°
2026-05-05 22:05 26.76056 -80.65237 22015 ft 381 kts 340°
2026-05-05 22:05 26.78603 -80.66049 22016 ft 381 kts 340°
2026-05-05 22:05 26.81122 -80.66853 22019 ft 381 kts 340°
2026-05-05 22:05 26.83671 -80.67666 22017 ft 381 kts 340°
2026-05-05 22:06 26.86226 -80.68481 22018 ft 381 kts 340°
2026-05-05 22:06 26.88776 -80.69295 22035 ft 381 kts 340°
2026-05-05 22:06 26.91328 -80.70110 22017 ft 381 kts 339°
2026-05-05 22:06 26.93856 -80.70994 22019 ft 380 kts 338°
2026-05-05 22:07 26.96358 -80.71942 22021 ft 379 kts 337°
2026-05-05 22:07 26.98686 -80.72842 22027 ft 379 kts 337°
2026-05-05 22:07 27.01177 -80.73806 22027 ft 379 kts 337°
2026-05-05 22:07 27.03669 -80.74764 22025 ft 379 kts 337°
2026-05-05 22:08 27.06173 -80.75721 22030 ft 379 kts 337°
2026-05-05 22:08 27.08640 -80.76659 22029 ft 379 kts 337°
2026-05-05 22:08 27.11137 -80.77607 22029 ft 379 kts 337°
2026-05-05 22:08 27.13635 -80.78554 22029 ft 379 kts 337°
2026-05-05 22:09 27.16142 -80.79503 22026 ft 379 kts 337°
2026-05-05 22:09 27.18637 -80.80449 22041 ft 379 kts 337°
2026-05-05 22:09 27.21142 -80.81399 22029 ft 379 kts 337°
2026-05-05 22:09 27.23642 -80.82348 22030 ft 379 kts 337°
2026-05-05 22:10 27.26144 -80.83298 22025 ft 379 kts 337°
2026-05-05 22:10 27.28640 -80.84246 22030 ft 379 kts 337°
2026-05-05 22:10 27.31135 -80.85194 22028 ft 379 kts 337°
2026-05-05 22:10 27.33648 -80.86101 22027 ft 380 kts 339°
2026-05-05 22:11 27.36198 -80.86891 22029 ft 380 kts 341°
2026-05-05 22:11 27.38763 -80.87635 22032 ft 380 kts 341°
2026-05-05 22:11 27.41329 -80.88368 22030 ft 380 kts 341°
2026-05-05 22:11 27.43892 -80.89106 22039 ft 380 kts 341°
2026-05-05 22:12 27.46454 -80.89852 22040 ft 380 kts 341°
2026-05-05 22:12 27.48974 -80.90592 21606 ft 379 kts 341°
2026-05-05 22:12 27.51513 -80.91343 20998 ft 376 kts 341°
2026-05-05 22:12 27.54026 -80.92088 20360 ft 370 kts 341°
2026-05-05 22:13 27.56500 -80.92824 19702 ft 365 kts 341°
2026-05-05 22:13 27.58926 -80.93548 19023 ft 362 kts 341°
2026-05-05 22:13 27.61360 -80.94275 18339 ft 360 kts 342°
2026-05-05 22:13 27.62965 -80.94755 17817 ft 359 kts 342°
2026-05-05 22:14 27.66163 -80.95711 16877 ft 354 kts 342°
2026-05-05 22:14 27.68536 -80.96420 16189 ft 351 kts 342°
2026-05-05 22:14 27.70882 -80.97121 15520 ft 348 kts 342°
2026-05-05 22:14 27.73185 -80.97810 14854 ft 346 kts 342°
2026-05-05 22:15 27.75502 -80.98504 14169 ft 344 kts 342°
2026-05-05 22:15 27.77756 -80.99179 13491 ft 342 kts 342°
2026-05-05 22:15 27.80056 -80.99868 12785 ft 340 kts 342°
2026-05-05 22:15 27.81564 -81.00320 12345 ft 338 kts 342°
2026-05-05 22:16 27.83829 -81.00999 11682 ft 335 kts 342°
2026-05-05 22:16 27.86076 -81.01673 11038 ft 332 kts 342°
2026-05-05 22:16 27.88305 -81.02342 10475 ft 328 kts 342°
2026-05-05 22:16 27.90443 -81.02981 10275 ft 307 kts 342°
2026-05-05 22:17 27.92438 -81.03576 10141 ft 287 kts 341°
2026-05-05 22:17 27.94318 -81.04178 9947 ft 275 kts 338°
2026-05-05 22:17 27.96116 -81.04923 9500 ft 274 kts 335°
2026-05-05 22:17 27.97883 -81.05701 9088 ft 272 kts 335°
2026-05-05 22:18 27.99640 -81.06472 8686 ft 270 kts 336°
2026-05-05 22:18 28.01373 -81.07223 8301 ft 269 kts 336°
2026-05-05 22:18 28.03122 -81.07971 7909 ft 268 kts 336°
2026-05-05 22:18 28.04868 -81.08713 7517 ft 267 kts 337°
2026-05-05 22:19 28.06611 -81.09452 7123 ft 266 kts 337°
2026-05-05 22:19 28.08348 -81.10188 6753 ft 266 kts 337°
2026-05-05 22:19 28.10079 -81.10913 6390 ft 264 kts 336°
2026-05-05 22:19 28.11776 -81.11619 6231 ft 254 kts 337°
2026-05-05 22:20 28.13403 -81.12297 6109 ft 244 kts 336°
2026-05-05 22:20 28.14841 -81.13190 5951 ft 231 kts 313°
2026-05-05 22:20 28.15773 -81.14618 5770 ft 222 kts 296°
2026-05-05 22:20 28.16442 -81.16165 5560 ft 218 kts 294°
2026-05-05 22:21 28.17078 -81.17724 5369 ft 218 kts 294°
2026-05-05 22:21 28.17720 -81.19287 5164 ft 218 kts 294°
2026-05-05 22:21 28.18356 -81.20814 4956 ft 215 kts 295°
2026-05-05 22:21 28.18996 -81.22338 4747 ft 214 kts 295°
2026-05-05 22:22 28.19643 -81.23873 4548 ft 219 kts 295°
2026-05-05 22:22 28.20313 -81.25461 4346 ft 226 kts 295°
2026-05-05 22:22 28.21076 -81.27014 4118 ft 223 kts 312°
2026-05-05 22:22 28.22367 -81.27858 3890 ft 212 kts 351°
2026-05-05 22:23 28.23804 -81.28023 3645 ft 205 kts 358°
2026-05-05 22:23 28.25181 -81.28067 3405 ft 199 kts
2026-05-05 22:23 28.26548 -81.28077 3119 ft 194 kts
2026-05-05 22:23 28.27876 -81.28088 2872 ft 186 kts
2026-05-05 22:24 28.29145 -81.28102 2607 ft 179 kts
2026-05-05 22:24 28.30347 -81.28116 2366 ft 168 kts
2026-05-05 22:24 28.31527 -81.28127 2161 ft 172 kts
2026-05-05 22:24 28.32713 -81.28139 1974 ft 169 kts
2026-05-05 22:25 28.33879 -81.28153 1706 ft 161 kts
2026-05-05 22:25 28.34943 -81.28165 1475 ft 145 kts
2026-05-05 22:25 28.35895 -81.28176 1305 ft 132 kts
2026-05-05 22:25 28.36807 -81.28184 1156 ft 130 kts
2026-05-05 22:26 28.37722 -81.28193 992 ft 130 kts
2026-05-05 22:26 28.38629 -81.28203 815 ft 128 kts
2026-05-05 22:26 28.39534 -81.28212 633 ft 132 kts
2026-05-05 22:26 28.40449 -81.28225 431 ft 132 kts
2026-05-05 22:27 28.41389 -81.28238 275 ft 137 kts
2026-05-05 22:27 28.42325 -81.28240 110 ft 129 kts
2026-05-05 22:27 28.43103 -81.28242 98 ft 91 kts 359°
2026-05-05 22:27 28.43465 -81.28270 100 ft 35 kts 335°
2026-05-05 22:28 28.43662 -81.28371 104 ft 32 kts 359°
2026-05-05 22:28 28.43826 -81.28379 106 ft 14 kts 357°
2026-05-05 22:28 28.43875 -81.28429 107 ft 10 kts 270°
2026-05-05 22:28 28.43876 -81.28517 106 ft 13 kts 271°
2026-05-05 22:29 28.43876 -81.28618 106 ft 14 kts 268°
2026-05-05 22:29 28.43873 -81.28761 105 ft 20 kts 269°
2026-05-05 22:29 28.43872 -81.28916 106 ft 19 kts 269°
2026-05-05 22:29 28.43871 -81.29068 105 ft 19 kts 269°
2026-05-05 22:30 28.43866 -81.29229 99 ft 17 kts 253°
2026-05-05 22:30 28.43762 -81.29265 101 ft 16 kts 179°
2026-05-05 22:30 28.43650 -81.29264 102 ft 16 kts 180°
2026-05-05 22:30 28.43561 -81.29300 104 ft 15 kts 257°
2026-05-05 22:31 28.43553 -81.29416 106 ft 15 kts 269°
2026-05-05 22:31 28.43552 -81.29573 104 ft 24 kts 269°
2026-05-05 22:31 28.43550 -81.29765 103 ft 22 kts 269°
2026-05-05 22:31 28.43533 -81.29878 99 ft 14 kts 215°
2026-05-05 22:32 28.43437 -81.29885 100 ft 10 kts 180°
2026-05-05 22:32 28.43418 -81.29934 100 ft 8 kts 282°
2026-05-05 22:32 28.43429 -81.29985 100 ft 3 kts 284°
2026-05-05 22:32 28.43431 -81.29993 100 ft 0 kts 284°
2026-05-05 22:33 28.43431 -81.29996 100 ft 0 kts 283°